Weather Roundup
Issued by NWS

Home | Current Version | Previous Version | Graphics & Text | Print | Product List | Glossary Off
Versions: 1 2 3 4 5 6 7 8 9 10 11 12 13 14 15 16 17 18 19 20 21 22 23 24 25 26 27 28 29 30 31 32 33 34 35 36 37 38 39 40 41 42 43 44 45 46 47 48 49 50

000
NZUS93 KARX 171110
HRRWXR

CURRENT HOURLY OBSERVATIONS ACROSS
MUCH OF THE UPPER MISSISSIPPI VALLEY
NATIONAL WEATHER SERVICE LA CROSSE WI
600 AM CDT WED SEP 17 2014


...SOUTHEAST MINNESOTA...


CITY           SKY/WX    TMP DP  RH WIND       PRES   REMARKS
ROCHESTER      CLOUDY    49  46  90 S5        29.98F
ROCHESTER/MAYO CLOUDY    53  44  73 S5        29.99S
WINONA         CLOUDY    48  46  93 CALM      29.99S
AUSTIN         CLOUDY    48  46  93 CALM      29.98S
ALBERT LEA     CLOUDY    54  48  82 S5        29.97S
DODGE CENTER   CLOUDY    50  46  87 CALM      29.98S
PRESTON        MOCLDY    48  47  97 S5        30.00S
OWATONNA       PTCLDY    52  46  82 S5        29.97S
FARIBAULT      MOCLDY    55  46  71 S5        29.96F
$$

...ELSEWHERE IN MINNESOTA...


CITY           SKY/WX    TMP DP  RH WIND       PRES   REMARKS
MINNEAPOLIS    CLOUDY    57  47  69 S6        29.95S
INTNL FALLS    CLOUDY    49  45  86 CALM      29.90R
DULUTH         PTCLDY    48  41  76 W6        29.92S
RED WING       CLOUDY    54  48  82 CALM      29.96S
REDWOOD FALLS  CLEAR     53  50  89 S5        29.92S
MANKATO        CLOUDY    52  45  76 S7        29.95S
WORTHINGTON    CLEAR     50  46  87 S6        29.94F
FAIRMONT       CLOUDY    52  46  82 S6        29.95S
$$

...SOUTHWEST WISCONSIN...


CITY           SKY/WX    TMP DP  RH WIND       PRES   REMARKS
LA CROSSE      CLOUDY    49  46  90 SE6       30.00S
PRAIRIE DU CHI FOG       43  42  96 CALM      30.02S VSB 3/4
BOSCOBEL       FOG       46  44  93 CALM      30.04S VSB 1/4
LONE ROCK      FOG       44  40  85 CALM      30.04S VSB 1/4
PLATTEVILLE    CLEAR     45  42  90 CALM      30.04S
FORT MC COY    CLOUDY    37  37 100 CALM      30.01F
CAMP DOUGLAS   CLEAR     39  39 100 E5        30.01S
VIROQUA        CLOUDY    48  45  87 S5        30.00F
WIS DELLS      CLEAR     43  41  95 CALM      30.02S
$$

...ELSEWHERE IN WISCONSIN...


CITY           SKY/WX    TMP DP  RH WIND       PRES   REMARKS
MILWAUKEE      PTCLDY    48  42  80 S3        30.04S
MADISON        PTCLDY    40  38  93 CALM      30.03S
GREEN BAY      CLEAR     43  41  93 CALM      30.01S
EAU CLAIRE     CLOUDY    44  42  93 CALM      29.97S
BLACK RVR FLS  PTSUNNY   34  34 100 CALM      30.00S
MEDFORD        CLEAR     37  37  99 S3        29.98S FOG
WAUSAU         CLEAR     40  39  97 E6        29.99S
WIS RAPIDS     CLEAR     39  38  96 CALM      30.02S
MARSHFIELD     PTCLDY    42  40  92 S3        29.99S
RICE LAKE      MOCLDY    43  42  97 CALM      29.98S
$$

...NORTHEAST IOWA...


CITY           SKY/WX    TMP DP  RH WIND       PRES   REMARKS
WATERLOO       PTCLDY    47  45  93 E3        30.00S
DUBUQUE        PTCLDY    47  43  86 S3        30.03F
DECORAH        MOCLDY    48  45  87 CALM      29.99F
MASON CITY     CLOUDY    49  48  97 S3        30.00S
CHARLES CITY   CLOUDY    48  46  93 S5        30.00S
OELWEIN        CLOUDY    50  48  93 SE3       30.01F
$$

...ELSEWHERE IN IOWA...


CITY           SKY/WX    TMP DP  RH WIND       PRES   REMARKS
DES MOINES     CLOUDY    58  50  75 SE7       29.97F
IOWA CITY      PTCLDY    46  44  93 CALM      30.03F
FORT DODGE     PTCLDY    46  43  87 E5        29.97S
MARSHALLTOWN   PTCLDY    48  46  93 SE5       29.98F
CEDAR RAPIDS   CLEAR     47  46  97 CALM      30.01S
$$

...NORTHERN ILLINOIS...


CITY           SKY/WX    TMP DP  RH WIND       PRES   REMARKS
CHICAGO-OHARE  PTCLDY    50  45  83 CALM      30.04S
DUPAGE         PTCLDY    43  40  89 CALM      30.04S
CHICAGO-MIDWAY MOCLDY    51  45  79 SW3       30.05S
MOLINE         CLOUDY    48  45  89 E3        30.03F
ROCKFORD       PTCLDY    42  39  89 CALM      30.07R
STERLING       PTCLDY    41  37  87 SE3       30.05S
PEORIA         PTCLDY    50  46  86 CALM      30.05S
$$

NOTE: "FAIR" INDICATES FEW OR NO CLOUDS BELOW 12,000 FEET WITH NO
SIGNIFICANT WEATHER AND/OR OBSTRUCTIONS TO VISIBILITY. WIND
SPEEDS ARE IN MILES-PER-HOUR.



USA.gov is the U.S. government's official web portal to all federal, state and local government web resources and services.